Location: Unspecified
(0.0000°N, 0.0000°E)
Time: 17:23:18
(UTC+00:00)

Vanguard 1 Rocket - All Passes

Search period start: 23 September 2019 00:00
Search period end: 03 October 2019 00:00
Orbit: 651 x 4225 km, 34.3° (Epoch: 20 September)

Date Brightness Start Highest point End Pass type
(mag) Time Alt. Az. Time Alt. Az. Time Alt. Az.
23 Sep - 01:18:37 10° NW 01:23:41 53° NE 01:27:58 10° ESE night (unlit)
23 Sep - 03:46:54 10° SW 03:48:55 13° SSW 03:51:09 10° S visible
23 Sep - 08:46:09 10° S 08:52:16 13° SSE 08:59:55 10° SE daylight
23 Sep - 11:08:22 10° SSW 11:25:27 44° SE 11:49:23 10° ENE daylight
23 Sep - 13:35:23 10° SW 13:58:49 85° NW 14:23:52 10° NE daylight
23 Sep - 16:10:09 10° W 16:33:13 38° NW 16:51:27 10° NNE daylight
23 Sep - 19:00:31 10° NW 19:08:47 13° NNW 19:15:26 10° N visible
24 Sep - 00:07:26 10° NNW 00:12:27 24° NNE 00:16:15 10° E night (unlit)
24 Sep - 02:33:37 10° W 02:37:32 28° SW 02:41:34 10° SSE visible
24 Sep - 09:57:40 10° SSW 10:10:37 29° SE 10:29:39 10° E daylight
24 Sep - 12:22:33 10° SW 12:43:07 74° SE 13:09:22 10° ENE daylight
24 Sep - 14:53:03 10° WSW 15:17:15 54° NW 15:39:24 10° NE daylight
24 Sep - 17:36:03 10° WNW 17:52:43 22° NNW 18:05:15 10° NNE daylight
24 Sep - 22:56:16 10° NNW 23:00:23 15° NNE 23:03:37 10° NE night (unlit)
25 Sep - 01:21:26 10° NW 01:26:46 82° SW 01:31:08 10° SE night (unlit)
25 Sep - 08:48:15 10° S 08:56:05 16° SSE 09:06:39 10° ESE daylight
25 Sep - 11:10:50 10° SW 11:28:01 53° SE 11:53:03 10° ENE daylight
25 Sep - 13:38:19 10° WSW 14:01:13 73° NW 14:26:22 10° NE daylight
25 Sep - 16:14:43 10° W 16:36:25 32° NNW 16:53:55 10° NNE daylight
25 Sep - 19:06:25 10° NW 19:13:17 12° NNW 19:18:55 10° N visible
25 Sep - 21:44:45 10° N 21:47:22 11° N 21:49:40 10° NNE visible
26 Sep - 00:09:35 10° NW 00:15:48 40° NNE 00:20:08 10° ESE night (unlit)
26 Sep - 02:37:51 10° WSW 02:40:41 16° SSW 02:43:32 10° S night (unlit)
26 Sep - 10:00:04 10° SSW 10:13:34 35° SE 10:34:21 10° E daylight
26 Sep - 12:25:14 10° SW 12:45:30 85° SE 13:12:07 10° NE daylight
26 Sep - 14:56:47 10° WSW 15:20:03 46° NW 15:41:46 10° NE daylight
26 Sep - 17:42:05 10° WNW 17:56:51 19° NNW 18:08:10 10° NNE daylight
26 Sep - 20:30:38 10° N 20:33:16 11° N 20:35:39 10° NNE visible
26 Sep - 22:57:38 10° NNW 23:04:03 23° NNE 23:08:26 10° ENE night (unlit)
27 Sep - 01:24:39 10° WNW 01:29:47 44° SW 01:33:58 10° SE night (unlit)
27 Sep - 08:50:24 10° S 08:59:33 20° SE 09:12:46 10° ESE daylight
27 Sep - 11:13:23 10° SW 11:30:28 63° SE 11:56:17 10° ENE daylight
27 Sep - 13:41:29 10° WSW 14:03:47 62° NW 14:28:45 10° NE daylight
27 Sep - 16:19:49 10° WNW 16:40:01 27° NNW 16:56:31 10° NNE daylight
27 Sep - 19:11:00 10° NNW 19:17:54 13° N 19:23:31 10° NNE visible
27 Sep - 21:45:10 10° NNW 21:51:21 16° NNE 21:55:51 10° NE visible
28 Sep - 00:12:06 10° NW 00:19:00 71° NE 00:23:34 10° ESE night (unlit)
28 Sep - 10:02:30 10° SSW 10:16:15 42° SE 10:38:27 10° ENE daylight
28 Sep - 12:28:06 10° SW 12:47:55 82° NW 13:14:38 10° NE daylight
28 Sep - 15:00:55 10° W 15:23:09 39° NNW 15:44:11 10° NNE daylight
28 Sep - 17:48:04 10° NW 18:01:19 17° NNW 18:11:36 10° NNE visible
28 Sep - 20:31:15 10° NNW 20:37:36 14° N 20:42:28 10° NE visible
28 Sep - 22:59:34 10° NW 23:07:34 35° NNE 23:12:30 10° E visible
29 Sep - 01:28:19 10° W 01:32:44 25° SW 01:36:25 10° SSE night (unlit)
29 Sep - 08:52:36 10° SSW 09:02:40 25° SE 09:18:11 10° E daylight
29 Sep - 11:16:02 10° SW 11:32:50 75° SE 11:59:11 10° ENE daylight
29 Sep - 13:44:58 10° WSW 14:06:34 53° NW 14:31:03 10° NE daylight
29 Sep - 16:25:21 10° WNW 16:44:01 24° NNW 16:59:23 10° NNE daylight
29 Sep - 19:14:17 10° NNW 19:22:32 14° N 19:28:55 10° NNE visible
29 Sep - 21:46:37 10° NNW 21:55:11 24° NNE 22:00:41 10° ENE visible
30 Sep - 00:14:57 10° WNW 00:22:03 69° SW 00:26:39 10° SE night (unlit)
30 Sep - 07:44:56 10° SSE 07:49:17 12° SE 07:54:36 10° ESE daylight
30 Sep - 10:05:01 10° SSW 10:18:45 52° SE 10:42:03 10° ENE daylight
30 Sep - 12:31:10 10° WSW 12:50:29 70° NW 13:17:00 10° NE daylight
30 Sep - 15:05:31 10° W 15:26:38 33° NNW 15:46:41 10° NNE daylight
30 Sep - 17:53:29 10° NW 18:06:01 16° N 18:15:43 10° NNE visible
30 Sep - 20:32:40 10° NNW 20:41:45 19° NNE 20:47:58 10° NE visible
30 Sep - 23:01:48 10° NW 23:10:54 56° NNE 23:16:07 10° ESE visible
01 Oct - 01:32:45 10° WSW 01:35:41 15° SW 01:38:17 10° S night (unlit)
01 Oct - 08:54:55 10° SSW 09:05:29 32° SE 09:22:54 10° E daylight
01 Oct - 11:18:51 10° SW 11:35:18 88° SE 12:01:48 10° NE daylight
01 Oct - 13:48:49 10° W 14:09:37 44° NNW 14:33:21 10° NE daylight
01 Oct - 16:31:07 10° WNW 16:48:26 21° NNW 17:02:40 10° NNE daylight
01 Oct - 19:16:47 10° NNW 19:27:03 17° N 19:34:27 10° NE visible
01 Oct - 21:48:24 10° NW 21:58:51 34° NNE 22:04:53 10° E visible
02 Oct - 00:18:11 10° WNW 00:24:56 41° SW 00:29:26 10° SSE night (unlit)
02 Oct - 07:46:15 10° S 07:52:36 16° SE 08:01:20 10° ESE daylight
02 Oct - 10:07:37 10° SW 10:21:12 63° SE 10:45:12 10° ENE daylight
02 Oct - 12:34:29 10° WSW 12:53:16 59° NW 13:19:14 10° NE daylight
02 Oct - 15:10:33 10° WNW 15:30:31 28° NNW 15:49:25 10° NNE daylight
02 Oct - 17:57:57 10° NW 18:10:48 17° N 18:20:30 10° NE visible
02 Oct - 20:34:18 10° NNW 20:45:44 25° NNE 20:52:48 10° ENE visible
02 Oct - 23:04:21 10° NW 23:14:03 86° NE 23:19:24 10° SE visible
